Wisconsin Rapids, WI

9:01 AM CDT on July 25, 2017 (GMT -0500)
Alexander Field South Wood County

Weather History for KISW - November, 2012

Change the Weather History Date:

Wednesday, November 28, 2012

  Actual Average Record
Temperature  
Mean Temperature 26 °F -  
Max Temperature 34 °F 31 °F 63 °F (1998)
Min Temperature 17 °F 15 °F -10 °F (1976)
Degree Days  
Heating Degree Days 40    
Moisture  
Dew Point 17 °F    
Average Humidity 71    
Maximum Humidity 86    
Minimum Humidity 52    
Precipitation  
Precipitation 0.00 in - - ()
Sea Level Pressure  
Sea Level Pressure 30.29 in    
Wind  
Wind Speed 5 mph (WSW)    
Max Wind Speed 10 mph    
Max Gust Speed -    
Visibility 10 miles    
Events      
Averages and records for this station are not official NWS values.
T = Trace of Precipitation, MM = Missing Value Source: NWS Daily Summary

Daily Weather History Graph

Daily Weather History Graph

Search for Another Location

Airport or City:

Trip Planner

Search our weather history database for the weather conditions in past years. The results will help you decide how hot, cold, wet, or windy it might be!

Date:

Astronomy

Nov. 28, 2012 Rise Set
Actual Time 7:12 AM CST 4:22 PM CST
Civil Twilight 6:39 AM CST 4:54 PM CST
Nautical Twilight 6:03 AM CST 5:30 PM CST
Astronomical Twilight 5:28 AM CST 6:05 PM CST
Moon 4:37 PM CST (11/28) 7:09 AM CST (11/28)
Length of Visible Light 10h 15m
Length of Day
9h 10m
Full, 100% of the Moon is Illuminated
Nov 28
Full
Dec 6
Last Quarter
Dec 13
New
Dec 19
First Quarter
Dec 28
Full

Hourly Weather History & Observations

Time (CST) Temp. Windchill Dew Point Humidity Pressure Visibility Wind Dir Wind Speed Gust Speed Precip Events Conditions
12:54 AM 24.1 °F 18.2 °F 12.9 °F 62% 30.22 in 10.0 mi WSW 4.6 mph - N/A   Clear
1:54 AM 24.1 °F 15.2 °F 14.0 °F 65% 30.25 in 10.0 mi West 8.1 mph - N/A   Clear
2:41 AM 24.8 °F 19.1 °F 14.0 °F 64% 30.22 in 10.0 mi West 4.6 mph - N/A   Mostly Cloudy
2:54 AM 24.1 °F 19.7 °F 14.0 °F 65% 30.27 in 10.0 mi West 3.5 mph - N/A   Overcast
3:54 AM 24.1 °F 18.2 °F 15.1 °F 69% 30.28 in 10.0 mi NW 4.6 mph - N/A   Overcast
4:22 AM 23.0 °F 18.4 °F 15.8 °F 74% 30.23 in 10.0 mi WSW 3.5 mph - N/A   Scattered Clouds
4:54 AM 18.0 °F 12.7 °F 12.0 °F 78% 30.30 in 10.0 mi SW 3.5 mph - N/A   Clear
5:51 AM 19.4 °F 11.5 °F 15.8 °F 86% 30.27 in 10.0 mi WSW 5.8 mph - N/A   Mostly Cloudy
5:54 AM 21.0 °F 13.4 °F 16.0 °F 81% 30.32 in 10.0 mi WSW 5.8 mph - N/A   Mostly Cloudy
6:37 AM 19.4 °F 14.3 °F 15.8 °F 86% 30.27 in 10.0 mi West 3.5 mph - N/A   Scattered Clouds
6:54 AM 17.1 °F 11.7 °F 12.9 °F 84% 30.34 in 10.0 mi WSW 3.5 mph - N/A   Clear
7:32 AM 19.4 °F 11.5 °F 15.8 °F 86% 30.30 in 9.0 mi WSW 5.8 mph - N/A   Mostly Cloudy
7:54 AM 19.9 °F 12.1 °F 16.0 °F 85% 30.35 in 10.0 mi WSW 5.8 mph - N/A   Mostly Cloudy
8:54 AM 25.0 °F 15.5 °F 19.9 °F 81% 30.38 in 10.0 mi WSW 9.2 mph - N/A   Overcast
9:19 AM 24.8 °F 16.9 °F 19.4 °F 80% 30.33 in 10.0 mi West 6.9 mph - N/A   Scattered Clouds
9:54 AM 27.0 °F 17.3 °F 19.0 °F 72% 30.38 in 10.0 mi West 10.4 mph - N/A   Clear
10:54 AM 28.9 °F 19.8 °F 18.0 °F 64% 30.37 in 10.0 mi West 10.4 mph - N/A   Partly Cloudy
11:54 AM 32.0 °F 23.6 °F 18.0 °F 56% 30.35 in 10.0 mi West 10.4 mph - N/A   Clear
12:54 PM 32.0 °F 24.2 °F 18.0 °F 56% 30.33 in 10.0 mi WSW 9.2 mph - N/A   Clear
1:54 PM 34.0 °F 28.0 °F 18.0 °F 52% 30.31 in 10.0 mi WSW 6.9 mph - N/A   Clear
2:54 PM 33.1 °F 25.5 °F 18.0 °F 54% 30.28 in 10.0 mi SW 9.2 mph - N/A   Clear
3:54 PM 32.0 °F 25.6 °F 18.0 °F 56% 30.27 in 10.0 mi SW 6.9 mph - N/A   Clear
4:54 PM 28.9 °F 25.2 °F 18.0 °F 64% 30.27 in 10.0 mi SSW 3.5 mph - N/A   Clear
5:54 PM 28.0 °F 21.7 °F 18.0 °F 66% 30.27 in 10.0 mi SW 5.8 mph - N/A   Clear
6:54 PM 27.0 °F - 18.0 °F 69% 30.26 in 10.0 mi Calm Calm - N/A   Clear
7:54 PM 25.0 °F - 18.0 °F 75% 30.26 in 10.0 mi Calm Calm - N/A   Mostly Cloudy
8:54 PM 25.0 °F - 19.0 °F 78% 30.25 in 10.0 mi Calm Calm - N/A   Clear
9:54 PM 27.0 °F - 19.9 °F 75% 30.23 in 10.0 mi Calm Calm - N/A   Clear
10:54 PM 28.9 °F - 21.0 °F 72% 30.22 in 10.0 mi Calm Calm - N/A   Clear
11:54 PM 27.0 °F - 19.9 °F 75% 30.21 in 10.0 mi Calm Calm - N/A   Clear